Location: Balagbag Mahabang Kahoy
(14.1562°N, 120.9200°E)
Time: 04:59:35
(UTC+00:00)

Ariane H10+ - Pass Details

Date: 16 January 2026
Orbit: 224 x 2840 km, 6.7° (Epoch: 14 February)

Event Time Altitude Azimuth Distance (km) Brightness Sun altitude
Exits shadow 21:46:57 - 251° (WSW) 3,101 4.7 -9.4°
Reaches altitude 10° 21:49:38 10° 237° (WSW) 2,164 4.0 -8.8°
Maximum altitude 21:52:30 15° 201° (SSW) 1,470 3.5 -8.1°
Drops below altitude 10° 21:54:39 10° 162° (SSE) 1,516 4.1 -7.6°
Sets 21:56:55 0° 135° (SE) 2,104 5.7 -7.1°
